GW3472 Weather Reports


time (UTC)temp
C
wind
direction
speed
KPH
gust
KPH
rain 1hr
cm
rain 24hr
cm
rain mn
cm
humidity
%
barometer
mb
20260504050017 14 248 3.2 8.0 0.00 0.23 0.23 64 1006.2
20260504045037 15 248 3.2 8.0 0.00 0.23 0.23 63 1006.2
20260504044017 15 203 3.2 6.4 0.00 0.23 0.23 62 1006.2
20260504043017 15 225 4.8 14.5 0.00 0.23 0.23 61 1006.1
20260504042018 15 203 3.2 6.4 0.00 0.23 0.23 61 1006.1
20260504041037 15 225 3.2 9.7 0.00 0.23 0.23 61 1006.0
20260504040017 15 203 3.2 8.0 0.00 0.23 0.23 60 1005.9
20260504035017 15 225 4.8 11.3 0.00 0.23 0.23 60 1006.0
20260504034017 15 203 3.2 8.0 0.00 0.23 0.23 59 1006.1
20260504033017 15 225 3.2 8.0 0.00 0.23 0.23 58 1006.4
20260504032017 15 225 3.2 8.0 0.00 0.23 0.23 57 1006.4
20260504031018 16 225 1.6 6.4 0.00 0.23 0.23 56 1006.5
20260504030037 16 225 4.8 11.3 0.00 0.23 0.23 55 1006.7
20260504025017 16 225 4.8 8.0 0.00 0.23 0.23 54 1006.7
20260504024037 16 225 3.2 9.7 0.00 0.23 0.23 54 1006.6
20260504023020 16 225 4.8 8.0 0.00 0.23 0.23 53 1006.6
20260504022017 16 225 4.8 9.7 0.00 0.23 0.23 53 1006.6
20260504021017 16 225 4.8 11.3 0.00 0.23 0.23 54 1006.5
20260504020017 16 225 4.8 9.7 0.00 0.23 0.23 53 1006.4
20260504015017 16 225 4.8 11.3 0.00 0.23 0.23 53 1006.3
20260504014017 17 225 4.8 9.7 0.00 0.23 0.23 53 1006.3
20260504013017 17 225 4.8 9.7 0.00 0.23 0.23 51 1006.1
20260504012017 17 225 6.4 11.3 0.00 0.23 0.23 51 1006.1
20260504011022 17 225 6.4 17.7 0.00 0.23 0.23 50 1006.1
20260504010017 17 225 4.8 14.5 0.00 0.23 0.23 49 1006.1
20260504005017 18 225 6.4 14.5 0.00 0.23 0.23 49 1006.1
20260504004057 18 225 6.4 14.5 0.00 0.23 0.23 48 1006.1
20260504003017 18 225 9.7 17.7 0.00 0.23 0.23 46 1006.0
20260504002017 19 225 8.0 16.1 0.00 0.23 0.23 45 1006.1
20260504001057 20 225 8.0 16.1 0.00 0.23 0.23 45 1006.2
20260504000017 20 225 6.4 16.1 0.00 0.23 0.23 44 1006.2
20260503235038 20 225 6.4 20.9 0.00 0.23 0.23 43 1006.1
20260503234017 20 225 9.7 19.3 0.00 0.23 0.23 42 1006.2
20260503233017 20 225 8.0 17.7 0.00 0.23 0.23 42 1006.3
20260503232017 20 225 9.7 25.7 0.00 0.23 0.23 42 1006.2
20260503231017 20 248 9.7 22.5 0.00 0.23 0.23 40 1006.3
20260503230017 20 225 6.4 14.5 0.00 0.23 0.23 41 1006.4
20260503225017 20 225 11.3 27.4 0.00 0.23 0.23 41 1006.5
20260503224158 20 225 9.7 20.9 0.00 0.23 0.23 42 1006.5
20260503223138 20 225 9.7 24.1 0.00 0.23 0.23 42 1006.6
20260503222037 20 225 12.9 25.7 0.00 0.23 0.23 41 1006.6
20260503221037 20 225 11.3 25.7 0.00 0.23 0.23 40 1006.7
20260503220017 20 225 9.7 22.5 0.00 0.23 0.23 42 1006.8
20260503215017 20 225 11.3 25.7 0.00 0.23 0.23 40 1006.7
20260503214017 20 225 8.0 22.5 0.00 0.23 0.23 40 1006.8
20260503213037 19 225 8.0 17.7 0.00 0.23 0.23 41 1007.0
20260503212017 19 203 14.5 32.2 0.00 0.23 0.23 39 1007.2
20260503211017 19 203 11.3 24.1 0.00 0.23 0.23 40 1007.3
20260503210017 19 225 11.3 20.9 0.00 0.23 0.23 41 1007.4
20260503205017 19 225 12.9 32.2 0.00 0.23 0.23 39 1007.8
20260503204058 18 225 11.3 24.1 0.00 0.23 0.23 42 1008.0
20260503203017 18 225 12.9 22.5 0.00 0.23 0.23 39 1008.3
20260503202037 18 225 11.3 25.7 0.00 0.23 0.23 40 1008.5
20260503201017 18 225 14.5 29.0 0.00 0.23 0.23 39 1008.5
20260503200017 18 225 12.9 24.1 0.00 0.23 0.23 42 1008.7
20260503195017 17 225 14.5 29.0 0.00 0.23 0.23 40 1008.8
20260503194017 18 180 11.3 32.2 0.00 0.23 0.23 41 1008.9
20260503193037 18 203 14.5 37.0 0.00 0.23 0.23 41 1009.0
20260503192017 17 225 16.1 29.0 0.00 0.23 0.23 44 1009.2
20260503191017 17 225 12.9 29.0 0.00 0.23 0.23 47 1009.2
20260503190017 16 225 14.5 25.7 0.00 0.23 0.23 50 1009.3
20260503185018 16 180 9.7 27.4 0.00 0.23 0.23 55 1009.4
20260503184017 15 225 12.9 24.1 0.00 0.23 0.23 57 1009.6
20260503183017 14 180 8.0 19.3 0.00 0.23 0.23 62 1009.8
20260503182017 13 180 9.7 17.7 0.00 0.23 0.23 65 1010.1
20260503181017 13 203 8.0 24.1 0.03 0.23 0.23 66 1010.3
20260503180017 12 180 8.0 17.7 0.03 0.23 0.23 73 1010.6
20260503175037 11 158 8.0 19.3 0.03 0.23 0.23 76 1010.9
20260503174017 10 135 6.4 19.3 0.03 0.23 0.23 80 1011.1
20260503173017 9 90 3.2 11.3 0.05 0.23 0.23 84 1011.2
20260503172018 9 113 3.2 11.3 0.05 0.23 0.23 84 1011.7
20260503171017 9 158 4.8 8.0 0.05 0.20 0.20 84 1012.2
20260503131016 10 225 4.8 12.9 0.00 0.00 0.00 59 1014.5
20260503081016 7 225 3.2 8.0 0.00 0.00 0.00 57 1015.4
20260503072016 7 225 1.6 3.2 0.00 0.00 0.00 55 1015.5
20260503071016 7 225 1.6 6.4 0.00 0.00 0.00 54 1015.5